Probability
1 1 0 0 0 0 0 0 0 0 1 3 6 10 8 4 1 1 2 9 17 18 16 19 21 19 15 11 5 2 1 0 0 0 0 0 0 0 0 0 0 0 0 0 0 0 0 0 0
1 0 0 0 0 0 0 0 0 0 2 4 7 9 8 4 2 3 3 11 21 22 19 19 22 22 18 14 9 5 2 1 0 0 0 0 0 0 0 0 0 0 0 0 0 0 0 0 0
0 0 0 0 0 0 0 0 0 2 5 7 9 10 8 5 4 5 8 17 26 26 22 22 24 24 22 19 15 10 5 3 2 0 0 0 0 0 0 0 0 0 0 0 0 0 0 0 0
0 0 0 0 0 0 1 1 2 5 8 11 14 16 13 10 10 11 16 25 31 30 25 23 23 23 23 23 21 15 10 6 4 2 0 0 0 0 0 0 0 0 0 0 0 0 0 0 0
0 0 0 0 0 0 1 2 5 9 12 16 22 25 21 19 22 23 25 32 35 33 26 22 21 21 23 24 23 19 13 7 5 3 1 0 0 0 0 0 0 0 0 0 0 0 0 0 0
0 0 0 0 0 0 0 2 6 10 14 20 27 28 27 28 31 31 32 35 34 30 25 20 19 21 22 23 21 18 14 8 5 3 1 0 0 0 0 0 0 0 0 0 0 0 0 0 0
0 0 0 0 0 0 0 1 4 8 14 21 25 27 28 33 36 35 35 35 31 25 22 20 18 18 19 18 17 16 15 10 5 3 1 0 0 0 0 1 1 1 0 0 0 0 0 0 0
0 0 0 0 0 0 1 1 4 10 16 21 23 24 28 36 42 42 38 35 30 23 20 19 17 16 14 13 13 15 15 10 6 4 2 1 0 0 0 1 2 2 0 0 0 0 0 0 0
0 0 0 0 0 1 2 3 6 13 20 24 25 26 31 39 46 48 43 37 29 22 17 15 15 15 12 11 12 14 13 9 7 5 3 1 1 0 0 1 1 1 0 0 0 0 0 0 0
0 0 0 0 0 1 4 6 8 15 25 30 30 31 36 41 46 48 46 38 27 18 13 10 11 12 11 11 12 12 10 8 6 4 3 3 2 2 1 2 1 1 0 0 0 0 0 0 0
0 0 0 0 0 1 3 6 10 17 26 32 35 36 37 41 45 45 44 37 25 16 11 8 9 9 8 8 10 8 6 5 4 3 2 3 4 3 3 3 3 2 1 1 1 1 0 0 1
0 0 0 0 0 1 2 5 10 19 25 32 36 33 32 37 41 41 39 34 23 15 11 10 10 9 7 6 6 4 2 2 2 2 2 3 3 4 4 4 3 3 2 2 2 1 0 0 1
0 0 0 0 0 1 3 5 10 17 25 31 33 30 28 32 36 37 35 31 24 17 13 13 14 12 8 6 6 5 3 2 2 2 2 2 2 2 2 3 3 3 3 3 3 2 1 1 1
0 0 0 0 0 2 5 5 8 15 23 28 30 29 30 32 36 36 34 30 25 20 16 14 13 12 9 8 8 7 5 4 3 3 3 2 1 1 1 1 3 3 3 3 2 2 2 1 1
0 0 0 0 0 2 5 5 6 12 21 27 30 31 33 36 37 36 32 28 24 22 19 15 11 10 10 9 8 6 5 3 3 3 4 2 1 0 0 1 2 3 3 2 1 1 1 1 0
0 0 0 0 0 1 4 5 7 11 19 26 29 30 32 34 34 31 28 24 22 20 18 13 8 7 8 6 4 3 2 1 1 1 2 2 1 0 0 0 1 1 2 1 0 0 0 0 0
0 0 0 0 1 2 3 5 8 12 18 22 24 24 26 28 28 25 22 20 18 15 11 8 5 4 3 2 1 1 1 0 0 0 1 1 0 0 0 0 0 0 0 0 0 0 0 0 0
0 0 0 0 1 2 3 6 10 15 19 20 19 18 18 20 20 17 15 15 14 10 6 3 2 1 0 0 0 0 0 0 0 0 0 0 0 0 0 0 0 0 0 0 0 0 0 0 0
0 0 0 0 0 1 3 6 11 16 19 18 15 13 12 13 12 10 9 11 11 8 4 2 1 0 0 0 0 0 0 0 0 0 0 0 0 0 0 0 0 0 0 0 0 0 0 0 0
0 0 0 0 0 0 1 4 8 12 14 13 10 9 9 10 8 7 7 9 9 6 3 1 0 0 0 0 0 0 0 0 0 0 0 0 0 0 0 0 0 0 0 0 0 0 0 0 0
0 0 0 0 0 0 0 1 4 7 9 9 8 8 8 8 6 5 5 6 6 4 1 0 0 0 0 0 0 0 0 0 0 0 0 0 0 0 0 0 0 0 0 0 0 0 0 0 0
0 0 0 0 0 0 0 0 1 3 4 6 6 7 7 5 4 3 3 3 2 1 0 0 0 0 0 0 0 0 0 0 0 0 0 0 0 0 0 0 0 0 0 0 0 0 0 0 0
0 0 0 0 0 0 0 0 0 1 2 2 2 3 3 3 2 2 2 1 0 0 0 0 0 0 0 0 0 0 0 0 0 0 0 0 0 0 0 0 0 0 0 0 0 0 0 0 0
0 0 0 0 0 0 0 0 0 0 1 1 0 0 1 1 1 1 1 0 0 0 1 1 1 0 0 0 0 0 0 0 0 0 0 0 0 0 0 0 0 0 0 0 0 0 0 0 0
0 0 0 0 0 0 0 0 0 0 0 0 0 0 0 0 0 0 0 0 0 1 2 2 1 0 0 0 0 0 0 0 0 0 0 0 0 0 0 0 0 0 0 0 0 0 0 0 0
0 0 0 0 0 0 0 0 0 0 0 0 0 0 0 0 0 0 0 0 0 1 2 2 1 0 0 0 0 0 0 0 0 0 0 0 0 0 0 0 0 0 0 0 0 0 0 0 0
0 0 0 0 0 0 0 0 0 0 0 0 0 0 0 0 0 0 0 0 0 1 2 1 0 0 0 0 0 0 0 0 0 0 0 0 0 0 0 0 0 0 0 0 0 0 0 0 0
0 0 0 0 0 0 0 0 0 0 0 0 0 0 0 0 0 0 0 0 0 1 1 0 0 0 0 0 0 0 0 0 0 0 0 0 0 0 0 0 0 0 0 0 0 0 0 0 0
0 0 0 0 0 0 0 0 0 0 0 0 0 0 0 0 0 0 0 0 0 0 0 0 0 0 0 0 0 0 0 0 0 0 0 0 0 0 0 0 0 0 0 0 0 0 0 0 0
0 0 0 0 0 0 0 0 0 0 0 0 0 0 0 0 0 0 0 0 0 0 0 0 0 0 0 0 0 0 0 0 0 0 0 0 0 0 0 0 0 0 0 0 0 0 0 0 0
Wind_Speed
6 5 3 0 2 3 2 4 3 5 3 4 5 6 5 5 4 4 4 15 19 16 12 16 18 19 19 18 18 17 17 17 17 17 16 16 16 15 15 14 13 13 13 12 12 12 11 11 11
4 5 2 1 3 1 4 4 4 4 1 4 7 8 7 7 7 8 8 15 18 15 11 14 19 19 19 18 17 17 17 17 16 16 16 16 15 14 14 13 13 13 12 12 12 11 11 10 10
4 4 1 1 1 3 4 5 4 3 2 5 5 5 5 3 5 5 9 17 15 12 10 14 20 19 19 18 17 17 17 16 16 15 15 15 14 14 13 13 12 12 12 11 11 10 10 9 8
2 2 1 1 4 6 7 7 7 4 3 6 8 5 3 2 3 10 16 17 15 11 9 14 20 19 19 18 17 17 17 16 16 15 14 14 14 13 13 12 11 11 11 11 10 9 8 7 7
2 2 1 2 5 5 6 5 5 4 4 7 10 7 2 3 12 16 16 16 15 11 9 13 19 19 19 18 17 16 16 16 15 15 14 13 13 13 13 12 11 10 10 10 9 8 7 6 5
1 2 1 3 5 3 2 5 5 8 9 7 8 8 2 5 12 14 14 14 14 13 9 11 18 19 18 17 17 16 16 15 15 14 14 13 12 12 12 12 11 10 10 9 9 8 7 5 4
3 1 2 4 4 3 1 4 5 7 8 6 7 6 2 4 8 11 12 13 12 11 9 7 9 13 17 17 16 15 15 15 14 14 13 13 12 11 11 11 11 10 10 10 9 8 7 5 4
4 2 3 3 3 3 1 4 5 6 5 6 5 7 4 4 9 11 12 11 11 9 8 7 6 6 7 9 15 15 15 14 13 13 12 12 11 11 11 10 10 10 10 10 9 8 8 6 5
1 2 4 4 2 2 2 3 3 5 7 3 3 3 7 10 11 12 12 11 9 9 7 6 6 6 6 7 11 12 13 12 11 9 11 9 4 4 5 8 10 10 10 10 9 9 8 7 6
4 3 7 4 2 1 3 5 3 6 6 5 5 5 9 11 13 13 12 12 10 9 8 6 6 7 6 6 5 4 5 5 4 3 4 3 3 2 4 6 10 10 10 9 9 9 8 6 3
4 6 6 2 1 3 4 6 6 7 5 4 8 9 8 10 11 11 10 10 10 9 8 6 6 6 5 3 4 2 2 2 3 3 3 3 2 1 1 1 3 4 6 3 4 4 3 3 3
3 5 3 1 1 4 4 4 6 8 4 5 9 9 8 9 9 9 10 9 9 8 7 6 6 5 4 4 4 3 2 2 2 3 3 3 2 2 2 1 1 2 1 2 2 2 3 3 3
1 2 1 2 5 5 6 6 7 7 8 9 9 7 7 8 8 7 7 8 9 9 7 5 6 5 5 5 3 4 3 3 3 3 2 3 2 2 2 1 1 1 1 2 2 2 3 3 3
2 2 2 2 4 3 6 4 6 4 8 10 9 7 6 7 8 9 8 6 8 9 7 5 6 6 6 4 4 3 3 3 3 3 3 3 2 2 2 1 1 1 1 2 2 2 2 2 2
2 4 5 3 2 1 5 5 3 3 6 8 7 6 6 7 8 9 8 7 8 8 6 6 6 5 6 6 5 4 4 4 3 3 3 3 3 2 2 1 1 0 1 1 1 1 1 1 1
5 3 3 4 2 1 5 1 1 3 6 7 6 5 5 7 7 7 8 8 7 8 7 6 7 6 6 5 5 4 3 4 3 3 3 3 3 3 3 2 1 1 1 1 1 1 1 0 1
3 1 3 4 2 1 4 2 1 3 7 8 6 5 6 8 7 7 6 7 7 7 7 5 5 6 5 5 4 4 3 3 3 3 2 2 3 3 3 2 1 2 2 1 1 1 1 0 1
5 3 2 3 2 3 4 2 2 4 6 7 8 7 7 8 7 6 5 6 6 6 6 6 5 5 5 4 3 3 3 2 2 2 3 3 2 3 3 2 2 2 2 2 1 1 1 0 1
5 2 3 4 1 4 4 3 2 3 5 6 7 8 7 7 6 7 7 7 7 7 7 5 5 4 4 3 2 2 2 1 1 1 2 3 3 3 3 2 2 2 2 1 1 1 2 2 1
3 2 3 2 2 4 4 2 2 2 5 6 7 8 7 7 7 7 7 6 6 7 6 5 5 4 4 2 2 2 2 2 1 1 1 2 3 3 3 3 2 2 2 2 2 2 1 2 2
2 4 4 2 3 4 4 3 2 1 1 3 5 6 8 11 10 9 8 7 6 6 6 6 5 5 4 3 3 3 3 3 3 2 1 0 1 2 2 3 3 2 2 2 1 2 2 1 2
2 3 5 4 4 1 2 1 3 2 2 3 5 7 9 9 9 8 8 8 7 6 6 5 5 5 4 4 4 4 3 2 1 0 0 2 2 0 1 2 3 3 2 2 1 2 1 2 1
4 3 4 4 5 3 4 2 4 2 4 6 8 10 10 10 11 10 10 10 8 8 7 6 6 5 4 5 6 6 4 2 1 2 3 3 3 3 2 3 3 2 2 2 1 1 1 1 1
9 5 5 6 5 4 1 1 5 5 7 7 8 11 11 11 10 9 9 8 7 7 7 7 7 5 5 5 6 6 5 4 3 3 3 2 2 3 4 4 3 2 1 1 0 0 0 0 1
4 6 5 6 6 3 2 1 8 7 7 8 10 12 12 12 11 10 10 10 9 9 8 7 7 6 5 6 5 5 5 5 4 3 2 2 2 2 2 2 2 1 0 0 0 0 1 1 1
3 8 7 4 3 3 2 4 8 6 7 8 8 10 12 12 11 12 12 11 11 10 9 8 8 6 6 6 5 5 5 4 3 3 3 2 1 1 1 1 1 1 1 1 0 0 1 1 2
2 2 7 7 3 1 4 5 7 2 4 6 8 10 12 12 12 11 11 11 11 10 10 10 9 7 7 6 5 5 5 4 4 3 3 2 2 2 1 1 0 1 1 1 1 1 2 2 2
4 5 5 6 6 2 3 4 5 5 6 7 9 10 11 11 11 11 11 11 10 9 8 9 9 8 7 6 5 5 5 5 4 3 3 2 2 1 1 1 1 2 2 2 2 2 3 3 3
2 3 5 4 6 6 3 7 8 11 9 10 12 12 13 13 13 11 10 10 10 9 9 9 8 7 6 6 5 5 5 4 4 3 3 3 2 2 2 2 2 2 3 3 2 3 4 4 4
2 4 6 5 3 5 5 9 7 11 10 11 11 12 12 13 12 11 11 10 10 10 10 9 9 8 7 6 5 5 5 5 4 3 3 3 3 3 3 3 3 3 3 3 3 4 4 4 4
Wind_Direction
179 188 179 78 46 36 287 271 300 323 356 32 72 95 100 85 122 140 122 135 134 139 143 141 138 137 135 133 132 130 128 126 123 121 120 119 118 117 116 116 115 114 113 111 110 110 109 107 105
176 185 164 54 78 10 286 270 290 286 153 100 60 65 68 65 74 102 118 136 135 137 139 140 139 137 137 136 136 135 133 131 129 128 127 126 125 124 123 121 120 120 119 116 115 114 113 110 107
203 187 149 100 158 198 253 256 244 267 58 95 77 42 56 76 94 112 136 138 132 133 135 142 140 139 139 138 138 138 138 137 136 134 133 132 132 130 129 128 125 124 123 122 120 118 117 114 109
168 96 50 99 236 236 225 233 203 193 62 78 101 70 31 8 112 132 137 137 131 130 134 142 141 141 141 141 142 142 141 141 140 140 140 140 138 137 136 135 132 129 128 127 125 124 123 120 114
110 104 66 286 248 242 230 209 165 116 115 106 112 112 83 41 110 127 136 135 133 132 135 141 142 143 143 143 143 143 143 144 144 145 145 145 144 144 143 142 140 138 136 135 134 134 133 131 122
48 92 83 277 283 286 248 173 125 107 118 119 112 119 118 115 124 135 136 134 135 136 135 141 144 144 145 145 145 145 146 147 148 149 150 151 151 151 149 148 146 147 147 147 147 148 148 147 141
162 134 229 258 293 321 25 98 117 123 130 143 131 113 108 104 128 126 127 128 131 137 137 140 145 147 149 149 149 149 149 151 153 155 157 158 160 160 158 157 158 159 159 160 161 163 166 170 176
173 98 309 296 302 312 359 72 96 114 117 130 128 133 153 139 119 122 124 125 131 139 141 140 141 142 146 151 154 155 155 157 158 160 162 165 167 169 169 167 171 172 172 172 173 177 182 187 199
165 77 273 266 259 286 19 70 52 84 101 91 86 117 126 116 115 114 121 125 135 142 144 144 146 148 148 154 161 159 159 162 162 164 168 167 164 171 180 183 185 186 184 184 185 188 194 199 211
144 176 240 231 212 188 47 60 81 96 86 75 69 72 111 119 123 124 135 143 148 153 155 157 158 159 158 164 149 153 158 157 154 152 158 149 154 178 191 200 201 201 196 194 196 201 203 205 213
184 203 235 261 212 93 66 47 53 106 84 132 142 144 146 126 124 130 136 148 150 151 148 152 159 155 160 145 140 143 139 141 143 145 148 142 140 146 159 177 198 208 209 199 202 209 204 200 208
213 250 249 255 54 73 74 77 63 71 109 140 141 146 147 134 134 139 140 149 144 140 144 151 147 147 145 133 141 142 138 138 140 141 144 144 143 136 134 144 162 172 183 182 193 188 196 209 226
218 269 23 70 67 81 86 83 90 81 102 115 130 138 145 133 132 133 130 135 139 138 142 149 142 137 135 130 142 138 139 142 138 125 136 141 140 145 139 144 156 175 177 187 201 203 198 208 230
283 332 25 53 68 63 88 83 84 92 114 120 130 143 153 139 135 130 130 126 132 137 145 135 119 122 121 120 120 126 123 123 121 120 131 125 125 130 130 145 154 184 203 206 203 203 202 210 224
325 353 346 348 66 90 87 53 89 140 128 122 126 133 129 122 125 130 133 136 135 132 130 121 115 113 113 116 120 118 118 119 118 123 120 115 118 119 121 116 111 196 204 172 155 160 147 192 235
356 3 320 308 35 42 91 164 203 148 126 115 117 119 114 105 112 123 130 130 128 124 118 119 122 112 109 110 114 116 118 120 121 120 113 117 122 117 111 103 77 50 72 83 105 100 88 23 279
350 285 268 306 340 68 106 170 169 147 136 132 133 125 116 109 106 110 117 120 120 122 121 117 115 112 110 106 106 109 112 119 126 119 114 115 110 106 107 103 77 56 62 57 62 80 103 348 307
260 249 257 266 310 81 98 142 141 146 146 143 146 131 126 129 129 128 126 117 114 116 115 117 113 112 109 96 86 81 81 92 113 123 129 124 111 102 103 101 83 76 65 36 32 36 20 284 286
243 234 252 254 235 99 106 133 168 162 141 144 144 136 139 139 141 144 142 126 122 116 119 125 119 115 110 99 102 101 103 109 107 130 136 130 122 111 107 100 85 81 80 57 38 45 11 341 350
229 206 251 273 139 104 102 110 149 168 167 163 156 153 150 142 147 154 150 143 139 136 138 138 132 129 125 127 132 133 124 117 120 101 106 134 135 135 130 122 119 101 89 55 42 59 44 346 23
216 191 201 184 86 66 96 49 37 3 103 156 165 166 159 161 162 164 159 158 153 153 157 146 143 135 131 120 95 77 64 53 44 36 19 333 156 145 140 144 138 122 109 95 75 84 93 12 342
229 204 156 130 103 17 62 113 277 218 215 193 181 176 173 170 167 169 166 162 163 164 154 144 143 135 129 117 105 105 106 104 115 145 12 8 25 66 162 149 135 126 116 110 92 96 112 114 347
160 114 103 102 106 70 29 97 283 204 207 209 188 186 184 178 177 178 174 169 167 164 157 155 144 137 131 120 117 110 107 118 99 64 48 25 20 30 60 88 99 103 103 106 83 71 72 132 176
138 94 59 50 66 48 323 138 263 222 206 195 188 184 184 180 180 179 174 163 166 166 161 157 147 147 140 127 122 122 122 115 92 71 57 38 32 37 49 72 82 95 103 109 103 70 353 271 231
117 95 38 9 17 290 276 236 249 231 206 185 185 184 182 178 177 176 174 172 172 173 171 162 152 153 149 137 134 134 132 124 124 124 101 83 57 39 24 55 63 66 9 279 311 353 310 287 276
189 134 148 178 210 271 292 249 257 238 205 190 182 179 176 178 179 181 180 177 176 177 171 162 160 159 157 151 149 145 138 133 137 139 134 127 140 169 156 86 60 28 350 346 358 283 277 265 275
129 127 152 131 128 110 278 287 301 233 189 183 179 175 181 183 182 183 180 177 177 177 175 170 165 161 162 159 152 151 151 149 154 154 144 152 178 190 157 111 16 327 315 305 294 270 278 283 273
140 141 96 115 140 190 275 262 241 220 197 186 183 183 185 182 181 182 179 177 177 175 169 163 160 161 164 160 160 159 161 162 163 160 163 173 187 188 194 253 282 291 293 288 280 273 270 270 272
87 99 111 118 144 150 210 259 222 202 195 188 190 187 183 180 180 181 178 174 169 163 161 161 162 160 164 165 163 157 164 163 160 165 179 184 194 205 218 235 253 270 277 276 267 265 266 263 271
164 164 141 144 183 161 171 259 245 192 194 187 190 188 186 181 178 174 169 164 162 163 164 167 168 168 173 171 166 168 169 164 166 180 194 198 210 224 227 234 244 256 260 261 256 264 268 258 261